Location: Borbetomagus
(49.6328°N, 8.3592°E)
Time: 23:53:00
(UTC+00:00)

Cosmos 1536 - Pass Details

Date: 19 May 2025
Orbit: 494 x 518 km, 82.5° (Epoch: 22 June)

Event Time Altitude Azimuth Distance (km) Brightness Sun altitude
Rises 21:31:22 0° 349° (N) 2,643 7.8 -16.1°
Reaches altitude 10° 21:33:31 10° 349° (N) 1,747 6.6 -16.3°
Maximum altitude 21:37:20 85° 263° (W) 518 2.6 -16.5°
Enters shadow 21:38:50 36° 175° (S) 828 3.2 -16.7°
